Tracking 35274 objects as of 11-Sep-2026
HD Live streaming from Space Station
objects crossing your sky now

KUIPER-00222

Track KUIPER-00222 now!
10-day predictions
KUIPER-00222 is classified as:


NORAD ID: 67782
Int'l Code: 2026-030U
Launch date: February 12, 2026
Source: France (FR)
Launch site: FRENCH GUIANA (FRGUI)
Your satellite tracking list
Your tracking list is empty




NASA's NSSDC Master Catalog

Two Line Element Set (TLE):
1 67782U 26030U   26254.57497616 -.00000479  00000-0 -33825-4 0  9992
2 67782  51.8967  98.7613 0001144 106.1959 253.9129 14.79923830 32870
Source of the keplerian elements: AFSPC